Temperature
23 23 22 21 21 21 20 20 19 19 19 18 18 18 18 18 18 18 18 18 18 18 18 17 17 17 17 17 17 17 17 17 17 17 17 17 17 17 17 17 17 17 17
22 22 22 21 21 21 20 20 19 19 19 19 18 18 18 18 18 18 18 18 18 18 18 17 17 17 17 17 17 17 17 17 17 17 17 17 17 17 17 17 17 17 17
22 22 21 21 21 21 20 20 19 19 19 19 18 18 18 18 17 17 18 18 18 18 18 17 17 17 17 17 17 17 17 17 17 17 17 17 17 17 17 17 17 17 17
22 22 21 21 21 21 20 20 19 19 19 18 18 18 18 18 18 18 18 17 17 17 17 17 17 17 17 17 17 17 17 17 17 17 17 17 17 17 17 17 17 17 17
21 21 21 22 21 21 20 20 19 19 19 18 18 18 18 18 18 18 18 17 17 17 17 17 17 17 17 17 17 17 17 17 17 17 17 17 17 17 17 17 17 17 17
21 21 21 21 21 20 20 19 19 19 18 18 18 18 18 18 18 18 17 17 17 17 17 17 17 17 17 17 17 17 17 17 17 17 17 17 17 17 17 17 17 17 17
21 21 20 20 20 20 19 19 19 18 18 18 18 18 18 18 18 18 18 17 17 17 17 17 17 17 17 17 17 17 17 17 17 17 17 17 17 17 17 17 17 17 17
20 21 20 20 20 20 19 19 18 18 18 18 17 17 17 17 18 18 17 17 18 18 17 17 17 17 17 17 16 16 16 17 16 16 17 16 17 17 17 17 17 17 17
20 20 20 20 20 19 19 19 18 18 18 17 17 17 17 17 17 17 17 17 17 17 17 17 17 17 17 17 16 16 16 16 16 16 16 16 16 16 17 17 17 17 17
20 20 20 20 19 19 19 18 18 18 18 17 17 17 17 17 17 17 17 17 17 17 17 17 17 17 16 16 16 16 16 16 16 16 16 16 16 16 16 16 16 16 16
19 19 20 20 19 19 19 18 18 18 17 17 17 17 17 17 17 17 17 17 17 17 17 17 17 16 16 16 16 16 16 16 16 16 16 16 16 16 16 16 16 16 16
19 19 19 19 19 18 18 18 18 17 17 17 17 17 17 17 17 17 17 17 17 17 17 17 17 16 16 16 16 16 16 16 16 16 16 16 16 16 16 16 16 16 16
19 19 19 19 19 18 18 18 17 17 17 17 17 17 17 17 17 17 17 17 17 17 17 17 17 16 16 16 16 16 16 16 16 16 16 16 16 15 15 15 15 15 15
19 19 19 19 19 18 18 18 18 17 17 17 17 17 17 17 17 17 17 17 17 17 17 16 16 16 16 16 16 16 16 16 16 16 15 15 15 15 15 15 15 15 15
19 19 19 19 18 18 18 18 18 17 17 17 17 17 17 17 17 17 17 17 17 16 16 16 16 16 16 16 16 16 16 16 16 15 15 15 15 15 15 15 15 15 15
19 19 19 19 18 18 18 18 18 18 17 17 17 17 17 17 17 17 17 17 17 16 16 16 16 16 16 16 16 16 16 16 15 15 15 15 15 15 15 15 15 15 15
18 19 19 19 19 18 18 18 18 18 18 18 17 17 17 17 17 17 17 17 17 16 16 16 16 16 16 16 16 16 16 16 16 15 15 15 15 15 15 15 15 15 14
18 18 18 18 18 18 18 18 18 18 18 18 18 17 17 17 17 17 17 17 17 16 16 16 16 16 16 16 16 16 16 16 15 15 15 15 15 15 15 15 14 14 14
17 18 18 18 18 18 18 18 18 18 17 17 17 17 17 17 17 17 17 16 16 16 16 16 16 16 16 16 16 15 15 15 15 15 15 15 15 15 14 14 14 14 14
17 17 18 18 18 17 18 18 17 17 17 17 17 17 17 17 17 17 17 16 16 16 16 16 16 16 16 16 15 15 15 15 15 15 14 14 14 14 14 14 14 14 14
16 16 17 17 17 17 17 17 17 17 17 17 17 17 17 17 17 17 16 16 16 16 15 15 15 15 15 15 15 15 15 14 14 14 14 14 14 14 13 13 13 13 13
16 16 16 16 16 16 17 17 16 16 16 16 16 16 16 16 16 16 16 16 15 15 15 15 15 14 14 14 15 14 14 14 14 14 13 13 13 13 13 13 13 13 12
15 15 15 15 15 15 16 16 15 15 16 16 16 16 16 16 15 15 15 15 15 15 14 14 14 14 14 14 13 13 13 13 13 13 13 12 12 12 12 12 12 12 12
14 14 14 14 14 14 14 15 15 15 15 15 15 15 15 15 15 15 14 14 14 14 13 13 13 13 13 13 13 13 13 12 12 12 12 12 12 11 11 11 11 11 11
13 13 13 13 13 13 13 14 14 14 14 14 14 14 14 14 14 14 13 13 13 13 13 13 12 12 12 12 12 12 12 12 12 11 11 11 11 11 11 11 10 10 10
12 12 12 12 12 13 13 13 13 14 14 13 13 13 13 13 13 13 13 12 12 12 12 12 12 12 12 11 11 11 11 11 11 11 11 10 10 10 10 10 9 9 9
Wind_Speed
12 12 14 15 15 15 15 15 15 15 14 11 10 10 9 8 8 8 13 14 13 14 10 6 5 5 5 5 5 3 3 1 2 3 2 3 1 1 3 5 5 7 11
8 11 12 14 15 16 16 15 15 16 15 12 10 8 8 7 8 7 9 13 13 13 11 7 6 6 5 5 5 4 3 1 2 3 3 2 3 3 1 3 5 6 8
14 13 12 13 15 16 17 16 16 15 14 12 8 8 6 5 5 7 7 8 12 12 10 9 7 6 6 6 5 5 5 3 1 2 4 4 3 2 3 2 3 5 5
13 12 12 12 14 14 14 14 15 15 13 14 13 14 11 9 8 8 7 8 10 11 11 10 8 7 5 6 6 5 4 5 3 1 1 3 4 3 1 3 2 3 5
11 12 13 13 12 12 12 12 13 13 13 14 14 14 10 7 6 7 9 9 7 9 10 10 8 7 6 6 6 5 5 4 4 3 2 1 1 2 3 2 3 2 3
9 8 8 8 9 10 11 11 13 13 13 14 14 13 13 12 11 10 11 9 6 7 8 9 7 7 6 6 6 6 6 5 4 4 3 3 3 3 3 3 3 3 4
8 8 8 8 9 9 10 10 13 12 13 13 13 13 13 14 15 12 11 10 7 6 9 8 7 6 6 6 6 6 6 5 5 5 3 3 3 3 4 3 2 2 3
8 9 9 8 9 9 9 10 12 11 12 13 13 12 12 10 9 11 10 10 8 8 9 9 8 7 7 7 6 5 5 5 5 5 4 3 3 3 4 4 4 1 2
6 7 8 8 7 8 9 10 11 11 12 12 11 11 12 11 11 11 10 8 7 8 9 9 9 8 8 7 7 5 5 5 5 5 4 3 2 2 2 3 4 4 3
4 6 7 8 7 7 6 8 9 10 10 10 11 12 11 11 11 10 10 10 9 9 10 9 9 8 7 7 6 5 5 6 5 4 4 3 2 1 2 2 2 3 5
4 6 6 6 6 6 7 7 8 8 9 10 10 10 10 10 10 10 11 10 9 9 10 10 9 9 8 7 7 6 6 7 5 4 5 5 4 2 1 1 2 2 3
4 5 5 6 6 6 6 7 7 7 8 8 9 10 10 10 10 10 10 10 10 9 10 10 9 9 8 8 8 8 7 7 7 6 5 5 4 3 2 2 2 2 3
5 4 5 6 6 7 6 7 7 7 7 8 9 9 9 10 10 10 9 9 9 9 9 10 10 10 9 9 9 8 8 8 8 7 7 6 5 5 4 3 3 2 2
6 6 5 5 6 6 7 7 7 7 8 8 9 9 9 10 9 9 9 9 9 10 10 10 10 10 9 9 9 8 8 7 7 7 7 7 7 7 6 5 5 4 3
6 7 6 5 5 5 6 6 7 7 8 8 8 9 9 9 9 9 9 9 9 10 9 9 9 9 8 9 9 8 8 7 7 6 7 7 9 10 8 6 6 5 4
7 7 7 6 6 6 6 6 6 7 7 8 8 8 9 9 9 9 9 9 9 8 9 9 9 9 8 10 12 10 7 7 7 7 7 6 7 9 11 11 10 8 6
5 5 5 5 5 6 6 7 8 7 7 8 8 8 9 9 9 10 9 9 9 8 8 8 8 8 8 10 11 12 8 7 7 7 6 6 6 7 6 8 9 9 10
4 3 2 2 3 3 4 5 6 7 7 7 7 8 9 9 9 9 9 8 7 7 7 7 7 6 5 7 9 9 7 5 6 6 6 6 6 5 6 5 5 6 7
3 2 2 2 2 2 4 6 6 6 7 7 7 8 9 9 9 9 8 7 6 6 5 5 5 5 4 5 8 8 4 4 5 4 5 5 5 5 7 5 6 6 7
5 4 3 3 3 2 4 6 6 5 5 5 6 6 7 8 8 8 8 6 6 6 5 4 4 4 3 3 6 7 4 4 3 3 2 3 3 3 4 5 5 6 6
7 7 7 7 5 3 6 7 6 4 3 3 4 5 5 5 6 6 6 6 6 6 5 4 3 2 1 1 2 5 4 4 3 2 2 2 2 3 4 4 4 6 5
9 9 9 9 8 8 8 9 6 4 5 6 6 6 5 5 6 7 6 6 6 6 5 5 3 2 2 2 1 2 4 3 2 2 2 1 1 1 2 2 3 3 2
9 9 10 11 10 10 9 10 6 6 8 9 9 8 8 7 7 7 7 6 5 5 4 4 3 2 2 3 4 3 2 2 1 0 1 1 1 1 1 2 2 1 0
9 9 11 12 11 10 10 9 7 8 10 10 9 8 9 9 8 7 6 6 5 5 5 4 3 3 3 3 3 2 2 2 2 1 2 3 3 3 3 3 2 1 0
9 9 10 11 10 10 10 9 8 9 11 10 9 8 7 7 8 8 7 6 5 4 5 4 3 3 2 1 2 2 2 1 1 2 3 3 3 4 4 3 3 2 2
9 10 11 10 9 9 9 9 8 8 9 9 8 6 6 5 6 8 8 13 10 11 11 8 6 4 4 3 5 5 5 5 6 6 4 4 3 3 3 3 3 3 3
Wind_Direction
184 175 171 168 164 164 170 175 173 173 169 168 165 166 170 169 168 169 167 168 168 165 160 159 153 151 154 159 153 140 139 138 132 90 41 0 355 190 197 194 186 197 203
170 176 175 172 169 172 175 176 176 175 175 175 171 169 164 169 170 170 166 169 169 168 170 160 164 158 152 154 155 144 139 146 141 130 105 27 347 332 245 201 197 200 199
177 179 179 180 176 178 181 181 180 178 176 168 155 151 145 141 157 171 173 176 173 173 169 167 162 164 161 168 171 162 152 158 174 151 143 149 213 281 316 259 212 197 195
177 180 183 181 184 185 182 182 181 179 175 168 167 167 171 173 180 177 175 176 176 173 173 169 166 168 168 173 180 168 159 150 160 171 165 164 158 158 269 313 286 226 206
179 183 184 183 185 184 183 183 180 179 177 175 176 175 175 173 162 164 168 176 179 176 176 173 168 171 175 179 176 165 163 160 161 166 165 140 128 138 153 234 284 290 245
179 183 179 173 178 179 179 178 178 181 179 177 177 179 174 169 166 171 176 178 178 179 178 176 174 175 177 181 181 174 171 171 165 164 162 165 169 186 170 192 229 245 262
173 174 176 174 172 172 176 180 180 183 182 179 181 181 177 175 177 177 179 177 177 181 185 181 178 178 182 182 177 174 177 173 169 176 179 182 192 177 168 168 199 235 274
176 177 178 174 171 173 177 179 181 184 184 184 185 184 180 180 181 179 179 182 184 184 181 176 177 180 179 183 176 177 182 175 176 184 180 181 198 182 178 172 162 183 294
172 171 168 170 168 171 183 183 182 181 182 187 187 185 182 181 182 177 177 179 180 181 178 177 178 183 183 180 171 178 185 177 184 185 182 189 202 190 190 175 166 162 199
159 166 171 173 170 168 171 169 175 179 181 184 188 188 185 184 179 173 177 179 181 181 177 180 181 182 180 177 173 176 186 182 188 183 180 196 204 186 172 174 176 170 175
168 174 166 158 155 155 159 165 174 174 177 178 177 179 180 176 172 175 179 179 180 179 179 181 181 181 180 179 178 185 185 187 193 192 189 204 193 181 182 172 169 174 165
166 156 157 152 154 162 165 169 172 174 176 173 171 173 171 169 172 177 179 177 179 180 180 178 180 184 184 183 184 191 192 192 196 200 195 210 202 197 198 192 204 200 188
146 136 147 163 170 173 171 172 176 175 170 167 166 165 167 170 174 175 176 177 177 179 179 177 183 187 188 189 192 191 195 198 201 200 201 209 199 209 209 205 209 216 210
146 150 162 168 168 169 173 174 179 176 172 169 168 169 173 176 176 174 175 178 178 179 182 183 187 189 190 192 195 196 199 202 207 207 206 206 203 208 209 211 213 211 210
158 164 171 170 167 169 171 173 176 175 175 172 172 176 176 176 174 175 177 178 181 186 183 182 187 189 193 200 197 199 202 201 208 214 216 217 213 211 209 211 208 203 207
162 171 176 171 171 176 181 176 177 178 173 174 179 179 174 176 178 179 179 179 183 183 182 186 189 193 203 201 196 196 200 197 205 217 224 227 222 223 219 219 211 199 202
156 164 171 174 186 188 185 184 183 173 170 178 181 178 176 181 185 184 180 183 185 184 184 188 188 196 204 200 195 198 198 201 209 212 216 225 224 217 220 226 225 223 222
134 149 151 175 198 186 180 177 171 167 172 179 184 182 181 185 182 176 180 185 184 184 189 190 189 187 200 199 200 201 201 207 212 211 210 216 230 226 215 223 230 235 237
109 120 133 155 167 172 175 162 160 164 171 183 190 188 184 183 180 181 181 179 174 175 176 174 176 176 192 198 199 192 193 207 219 220 217 214 224 239 224 219 234 248 256
69 69 77 89 106 125 140 138 141 147 169 189 191 182 176 174 174 176 173 165 161 165 159 154 157 165 178 186 187 187 187 199 218 231 230 219 222 241 229 219 229 247 260
64 65 69 68 62 77 104 106 104 115 139 137 131 131 139 147 150 145 140 137 140 137 134 133 126 119 122 117 164 177 184 199 208 219 226 238 238 247 245 227 226 239 247
63 66 73 66 53 60 85 90 83 82 87 92 95 97 105 115 118 115 118 123 132 132 134 130 113 85 66 56 67 134 169 176 174 213 237 242 235 241 266 244 248 261 264
68 67 74 68 55 51 68 78 66 76 86 87 85 84 84 82 86 100 107 105 110 120 120 118 116 92 65 50 53 72 107 115 143 160 20 23 32 12 324 289 279 283 287
68 71 74 71 60 52 56 60 62 73 86 90 87 86 87 83 76 79 86 95 98 106 106 107 108 98 73 48 43 45 50 53 61 39 25 37 47 41 8 354 348 344 329
70 70 73 72 64 57 53 49 55 71 77 81 86 83 83 89 84 74 62 74 71 101 118 118 114 102 83 15 54 76 55 52 65 69 56 49 41 36 26 19 16 19 26
77 74 70 67 60 59 54 43 47 66 78 78 77 84 89 91 96 96 78 56 65 69 75 83 96 82 88 77 70 69 70 73 82 84 69 56 48 41 29 23 16 20 16
Height
1476 1480 1484 1488 1491 1494 1498 1501 1504 1509 1513 1517 1520 1523 1527 1531 1535 1538 1542 1545 1548 1551 1553 1556 1558 1560 1562 1564 1566 1568 1570 1571 1573 1574 1575 1576 1577 1578 1578 1579 1580 1580 1581
1476 1480 1482 1485 1487 1489 1493 1497 1501 1505 1508 1512 1517 1521 1525 1529 1532 1536 1540 1543 1546 1549 1552 1554 1556 1558 1560 1563 1564 1566 1568 1570 1571 1573 1574 1575 1577 1576 1577 1578 1578 1579 1580
1472 1476 1479 1481 1483 1486 1490 1493 1496 1501 1505 1509 1514 1518 1523 1527 1530 1533 1536 1540 1544 1547 1549 1552 1554 1556 1558 1560 1562 1564 1566 1568 1570 1571 1573 1573 1574 1575 1576 1576 1577 1577 1578
1468 1471 1474 1477 1480 1482 1486 1490 1493 1497 1501 1506 1510 1513 1516 1520 1524 1528 1533 1537 1541 1544 1547 1550 1552 1554 1556 1558 1560 1562 1564 1566 1568 1569 1571 1572 1572 1573 1574 1575 1575 1576 1576
1466 1468 1470 1473 1476 1479 1482 1486 1490 1494 1498 1502 1505 1509 1513 1518 1522 1527 1530 1534 1538 1541 1544 1547 1550 1552 1554 1556 1558 1560 1562 1564 1565 1567 1568 1569 1570 1571 1572 1572 1573 1574 1574
1464 1466 1469 1472 1474 1476 1479 1482 1485 1489 1494 1498 1502 1505 1510 1514 1519 1523 1526 1531 1535 1538 1542 1545 1547 1549 1551 1554 1556 1558 1559 1561 1563 1565 1566 1567 1568 1569 1570 1570 1571 1571 1572
1464 1466 1468 1470 1471 1473 1476 1479 1482 1485 1490 1494 1498 1502 1506 1511 1515 1519 1523 1527 1531 1534 1538 1541 1544 1547 1549 1551 1553 1555 1557 1558 1560 1562 1564 1565 1566 1567 1568 1569 1569 1569 1570
1463 1465 1466 1468 1470 1471 1474 1476 1479 1482 1486 1490 1494 1498 1502 1507 1511 1516 1520 1524 1528 1531 1535 1538 1541 1544 1546 1548 1550 1552 1554 1556 1557 1559 1561 1563 1564 1565 1566 1566 1567 1567 1567
1462 1463 1466 1467 1469 1471 1472 1474 1476 1479 1482 1486 1491 1495 1498 1502 1507 1512 1517 1521 1525 1529 1533 1535 1538 1540 1543 1545 1547 1549 1551 1553 1554 1556 1558 1560 1561 1562 1563 1564 1564 1565 1564
1462 1463 1465 1467 1468 1470 1471 1473 1474 1476 1480 1483 1486 1491 1494 1499 1504 1508 1513 1518 1522 1526 1529 1532 1535 1537 1540 1542 1544 1546 1548 1550 1552 1553 1555 1557 1558 1559 1560 1561 1561 1562 1562
1463 1464 1465 1467 1469 1470 1471 1472 1474 1476 1478 1480 1484 1487 1491 1496 1501 1505 1510 1515 1519 1523 1526 1529 1532 1535 1537 1539 1541 1543 1545 1547 1549 1550 1552 1553 1555 1556 1557 1558 1558 1558 1559
1463 1464 1466 1467 1469 1470 1472 1472 1474 1476 1477 1479 1482 1485 1489 1493 1498 1503 1507 1512 1516 1520 1523 1526 1529 1532 1534 1536 1538 1540 1542 1544 1546 1547 1549 1550 1551 1552 1553 1554 1555 1555 1555
1462 1464 1466 1467 1468 1470 1472 1472 1473 1475 1477 1479 1481 1484 1488 1492 1496 1500 1505 1509 1513 1517 1521 1524 1526 1529 1531 1534 1536 1538 1539 1541 1543 1544 1545 1547 1548 1549 1550 1550 1551 1552 1552
1461 1463 1465 1467 1467 1469 1471 1472 1474 1475 1477 1478 1481 1484 1487 1491 1495 1499 1503 1507 1511 1514 1518 1521 1524 1526 1528 1531 1533 1535 1537 1538 1540 1541 1542 1543 1544 1545 1546 1547 1547 1548 1549
1461 1462 1464 1466 1467 1469 1470 1472 1473 1475 1477 1478 1480 1483 1487 1491 1494 1498 1501 1505 1509 1512 1515 1518 1521 1523 1526 1528 1530 1532 1533 1535 1536 1538 1539 1540 1541 1542 1542 1543 1543 1544 1544
1459 1461 1464 1465 1466 1468 1470 1471 1473 1474 1476 1478 1480 1483 1486 1489 1493 1497 1500 1503 1506 1510 1513 1515 1518 1520 1522 1524 1526 1529 1530 1531 1532 1534 1535 1536 1537 1538 1539 1539 1540 1540 1540
1459 1461 1462 1464 1465 1467 1469 1470 1472 1474 1476 1477 1480 1482 1485 1488 1491 1495 1498 1501 1504 1507 1510 1512 1514 1517 1519 1521 1523 1525 1526 1527 1529 1530 1531 1532 1533 1534 1535 1535 1535 1535 1536
1460 1461 1462 1463 1465 1466 1468 1470 1472 1473 1475 1476 1479 1481 1484 1487 1490 1493 1496 1499 1502 1504 1507 1509 1512 1514 1516 1518 1519 1521 1522 1523 1525 1526 1527 1528 1529 1530 1530 1531 1531 1531 1531
1460 1461 1462 1463 1465 1466 1467 1469 1470 1472 1474 1476 1477 1480 1482 1485 1488 1490 1493 1496 1499 1502 1504 1506 1508 1510 1512 1514 1516 1517 1518 1519 1520 1521 1523 1523 1524 1525 1526 1526 1526 1526 1526
1461 1461 1463 1464 1465 1465 1466 1467 1469 1471 1473 1474 1476 1478 1481 1483 1485 1488 1490 1493 1496 1498 1501 1503 1505 1507 1508 1510 1512 1513 1514 1515 1516 1517 1518 1518 1519 1520 1520 1520 1520 1520 1520
1462 1462 1463 1464 1464 1466 1466 1467 1468 1470 1472 1474 1475 1477 1479 1481 1483 1485 1488 1491 1493 1496 1498 1500 1502 1503 1505 1506 1507 1508 1509 1510 1511 1512 1513 1513 1514 1514 1515 1515 1515 1514 1514
1463 1464 1464 1464 1465 1466 1467 1467 1469 1470 1472 1473 1475 1476 1478 1480 1482 1484 1486 1489 1491 1493 1495 1497 1498 1500 1501 1502 1503 1504 1505 1506 1507 1508 1508 1509 1510 1510 1510 1510 1510 1510 1509
1466 1466 1466 1466 1468 1468 1468 1469 1471 1472 1473 1474 1475 1476 1478 1480 1481 1483 1485 1488 1490 1491 1493 1495 1496 1498 1499 1500 1500 1501 1502 1503 1503 1504 1504 1505 1506 1506 1506 1506 1506 1506 1505
1468 1468 1468 1469 1470 1471 1471 1472 1473 1474 1474 1474 1476 1478 1479 1480 1482 1483 1485 1487 1489 1491 1492 1494 1495 1496 1497 1498 1499 1499 1499 1500 1500 1501 1502 1502 1503 1503 1503 1503 1503 1502 1501
1472 1472 1472 1472 1474 1475 1475 1475 1476 1476 1476 1477 1478 1480 1481 1482 1483 1485 1487 1489 1490 1492 1493 1494 1496 1496 1497 1498 1499 1499 1499 1498 1499 1499 1500 1501 1501 1500 1500 1500 1500 1499 1498
1476 1476 1476 1477 1478 1478 1479 1479 1479 1480 1479 1480 1481 1482 1484 1485 1486 1487 1489 1491 1493 1494 1495 1496 1497 1497 1498 1498 1498 1498 1498 1498 1498 1498 1498 1499 1499 1499 1498 1498 1497 1496 1495